Location: Carri�res
(48.9069°N, 2.1792°E)
Time: 23:06:12
(UTC+00:00)

deb Kosmos- 1898 - Pass Details

Date: 01 August 2021
Orbit: 732 x 754 km, 74.0° (Epoch: 27 September)

Event Time Altitude Azimuth Distance (km) Brightness Sun altitude
Exits shadow 00:34:28 11° 115° (ESE) 2,161 ? -22.6°
Maximum altitude 00:36:17 13° 93° (E) 2,030 ? -22.5°
Drops below altitude 10° 00:38:42 10° 65° (ENE) 2,271 ? -22.5°
Sets 00:42:16 0° 40° (NE) 3,206 ? -22.4°
